Location: Brachstadt
(48.6975°N, 10.6755°E)
Time: 05:38:13
(UTC+00:00)

Cosmos 1626 - Pass Details

Date: 18 September 2020
Orbit: 490 x 495 km, 82.5° (Epoch: 29 October)

Event Time Altitude Azimuth Distance (km) Brightness Sun altitude
Rises 20:13:00 0° 346° (NNW) 2,591 6.5 -26.8°
Reaches altitude 10° 20:15:09 10° 342° (NNW) 1,702 5.5 -27.1°
Enters shadow 20:17:25 33° 324° (NW) 853 3.8 -27.4°
